Location: Dealu Mare
(46.0500°N, 22.8167°E)
Time: 22:19:23
(UTC+00:00)

CBERS-1 - Pass Details

Date: 15 January 2026
Orbit: 765 x 772 km, 98.9° (Epoch: 13 February)

Event Time Altitude Azimuth Distance (km) Brightness Sun altitude
Rises 05:14:55 0° 9° (N) 3,244 7.1 -9.0°
Reaches altitude 10° 05:17:17 10° 4° (N) 2,313 6.3 -8.6°
Maximum altitude 05:22:09 47° 292° (WNW) 1,014 4.2 -7.8°
Drops below altitude 10° 05:26:59 10° 219° (SW) 2,300 6.3 -7.0°
Sets 05:29:20 0° 214° (SSW) 3,223 7.1 -6.6°
